User: anonymous   Login
Location: Black Swamp Observatory
(41.3920°N, 84.1250°W)
Time: 04:31:56
(UTC-04:00)
Language:

MaSat-1 - Orbit

View from above orbital plane
View from above orbital plane
View from above satellite
View from above satellite

Ground track
Ground track

The orbit data is extracted from the following two-line orbital elements,

1 38081U 12006E   14297.15768952  .00286083  22621-4  21762-2 0  5366
2 38081 069.4452 005.0742 0253889 166.7447 194.0574 15.39987747143064
Epoch (UTC): 24 October 2014 03:47:04
Eccentricity: 0.0253889
inclination: 69.4452°
perigee height: 273 km
apogee height: 619 km
right ascension of ascending node: 5.0742°
argument of perigee: 166.7447°
revolutions per day: 15.39987747
mean anomaly at epoch: 194.0574°
orbit number at epoch: 14306

The dashed part of the orbit path shows where the satellite is in the earth's shadow,  

DLR